Regional Weather Roundup
Issued by NWS Jackson, KY

Current Version | Previous Version | Text Only | Print | Product List | Glossary On
Versions: 1 2 3 4 5 6 7 8 9 10 11 12 13 14 15 16 17 18 19 20 21 22 23 24 25 26 27 28 29 30 31 32 33 34 35 36 37 38 39 40 41 42 43 44 45 46 47 48 49 50
000
ASUS43 KJKL 210419
RWRJKL

EAST KENTUCKY HOURLY WEATHER ROUNDUP
NATIONAL WEATHER SERVICE JACKSON KY
1200 AM EDT THU AUG 21 2014

NOTE: "FAIR" INDICATES FEW OR NO CLOUDS BELOW 12,000 FEET WITH
NO SIGNIFICANT WEATHER AND/OR OBSTRUCTIONS TO VISIBILITY.

* THESE REPORTS ARE NOT UNDER NWS QUALITY CONTROL AND MAY NOT
  REPORT WEATHER SUCH AS PRECIPITATION AND FOG.

KYZ079-080-083-085-087-088-110-112-115-119-120-210500
...EASTERN KENTUCKY...

CITY           SKY/WX    TMP DP  RH WIND       PRES   REMARKS
JACKSON        CLOUDY    67  65  93 CALM      30.11S
LONDON         CLOUDY    70  66  87 S3        30.12S
SOMERSET*      CLOUDY    68  68 100 CALM      30.12S
MONTICELLO*    CLOUDY    68  68 100 CALM      30.13R
WILLIAMSBURG*  CLEAR     66  66 100 CALM      30.13R
MIDDLESBORO*   CLOUDY    67  67 100 CALM      30.14S
HARLAN APT*    CLOUDY    64  64 100 MISG      30.14S VSB<1/4
HAZARD APT*    PTCLDY    68  68 100 SW3       30.11S
BLACK MTN*       N/A     63  57  82 S9          N/A
PIKEVILLE APT* CLEAR     68  64  88 CALM      30.10S
BIG SANDY*     CLOUDY    69  67  92 SW7       30.08S
MOREHEAD APT*  MOCLDY    70  68  94 SW7       30.10S
ASHLAND*       CLEAR     73  66  78 W3        30.02S
$$

KYZ035-036-041-042-044-050-067-078-099-210500
...CENTRAL KENTUCKY...

CITY           SKY/WX    TMP DP  RH WIND       PRES   REMARKS
MT STERLING*   CLOUDY    68  68 100 W6        30.10R
FLEMING/MASON* CLEAR     70  68  94 SW7       30.08S
DANVILLE*      CLOUDY    68  66  94 SW9       30.11S
RICHMOND*      CLOUDY    68  64  88 S6        30.08F
LEXINGTON      MOCLDY    71  67  87 S7        30.08S
FRANKFORT      CLOUDY    72  68  87 S8        30.06S
$$

KYZ091>093-OHZ055-061-077-WVZ005-015-034-035-042-210500
...SOUTHERN OHIO/WEST VIRGINIA...

CITY           SKY/WX    TMP DP  RH WIND       PRES   REMARKS
COVINGTON      LGT RAIN  71  68  90 S10       30.04F
COLUMBUS       PTCLDY    78  66  66 SW8       30.00S
DAYTON         PTCLDY    72  67  84 SW7       30.05R
WILMINGTON     PTCLDY    68  65  90 SW7       30.04R
HUNTINGTON     CLOUDY    73  67  81 W8        30.05R
CHARLESTON     MOCLDY    71  70  96 CALM      30.02F
PINEVILLE*     CLOUDY    71  71 100 MISG      30.14F FOG
BECKLEY        CLOUDY    68  65  90 SW5       30.14R
BLUEFIELD      CLOUDY    71  65  81 NW5       30.16R
$$

VAZ002-007-008-TNZ017-027-036-066-071-210500
...SOUTHWEST VIRGINIA/EAST TENNESSEE...

CITY           SKY/WX    TMP DP  RH WIND       PRES   REMARKS
WISE*          CLOUDY    64  64 100 SW10      30.18R
JONESVILLE*      N/A     66  66 100 CALM      30.16S FOG
ABINGDON*      CLOUDY    69  69  99 W8        30.15R
BRISTOL        CLOUDY    68  65  90 W5        30.12F
KNOXVILLE      CLOUDY    69  68  96 W6        30.12S
OAK RIDGE      CLOUDY    69  67  93 VRB3      30.16S
CROSSVILLE     CLOUDY    69  64  84 SE5       30.18F
NASHVILLE      CLOUDY    72  71  97 S6        30.09F
$$

...KEY TO REMARKS...
VSB - VISIBILITY IN MILES
WCI - WIND CHILL INDEX
HX  - HEAT INDEX

$$


USA.gov is the U.S. government's official web portal to all federal, state and local government web resources and services.